Address 0x46cb0813b518405c094d655b5636486f0eb400d1

Txn Hash Method
Block
From
To
Value [Txn Fee]
0x706f06267bb12f4d2557ada626d29f20b87633ca635e2bb30ceb2d018c0984db0xda75ada3164508462022-12-01 19:17:2546 mins ago0x46cb0813b518405c094d655b5636486f0eb400d1OUT 0x0dcc5b5eb6624c5a1857566cd6e854e95ffb0c0b0 CELO0.0000461115
0xbcff6b43595578c5207dca264375e74f26bd749bdd8ed8783d93e6d3e2903b220xda75ada3164508462022-12-01 19:17:2546 mins ago0x46cb0813b518405c094d655b5636486f0eb400d1OUT 0x0dcc5b5eb6624c5a1857566cd6e854e95ffb0c0b0 CELO0.0002833545
0xafe517cc5ee2f802dbffb6d5d4e8b1d338b54f61bbde9c8b1067c0ae4bb5fa8d0xda75ada3164505422022-12-01 18:52:051 hr 12 mins ago0x46cb0813b518405c094d655b5636486f0eb400d1OUT 0x0dcc5b5eb6624c5a1857566cd6e854e95ffb0c0b0 CELO0.0000436025
0x09c11c636a51081523cf84af881f23ee31a3329bec4ff8d1a0f34ee07038cc600xda75ada3164503672022-12-01 18:37:301 hr 26 mins ago0x46cb0813b518405c094d655b5636486f0eb400d1OUT 0x0dcc5b5eb6624c5a1857566cd6e854e95ffb0c0b0 CELO0.000231302473
0x6ea2e4a0404d483726a707cf9878021bb4d10a1a5638e6f117d7ca022507db230x8c50d0e6164503672022-12-01 18:37:301 hr 26 mins ago0x46cb0813b518405c094d655b5636486f0eb400d1OUT 0x0dcc5b5eb6624c5a1857566cd6e854e95ffb0c0b0 CELO0.000199350707
0x544584e906d5bdc876f0f4edb307113e0940a37626c5642ca2b76aebe9f20df10xda75ada3164503672022-12-01 18:37:301 hr 26 mins ago0x46cb0813b518405c094d655b5636486f0eb400d1OUT 0x0dcc5b5eb6624c5a1857566cd6e854e95ffb0c0b0 CELO0.000095828879
0xe00b3e52ec9e377342676f3bed1941349349451d955d8c6e66665a99a254308f0xda75ada3164501862022-12-01 18:22:251 hr 41 mins ago0x46cb0813b518405c094d655b5636486f0eb400d1OUT 0x0dcc5b5eb6624c5a1857566cd6e854e95ffb0c0b0 CELO0.00004353
0x9684cc563798be1ed85c1e26769117a729ca5674778309342fe84cccffc4428d0xda75ada3164491892022-12-01 16:59:203 hrs 4 mins ago0x46cb0813b518405c094d655b5636486f0eb400d1OUT 0x0dcc5b5eb6624c5a1857566cd6e854e95ffb0c0b0 CELO0.000474262867
0xf8b4fec233a05a3044dfea75f1fba279002fcc05271b4038b54b70a1ce9b99200xda75ada3164491892022-12-01 16:59:203 hrs 4 mins ago0x46cb0813b518405c094d655b5636486f0eb400d1OUT 0x0dcc5b5eb6624c5a1857566cd6e854e95ffb0c0b0 CELO0.000302314275
0x3f76ab87991228715073c3a04136b9e7ff46357df5070f67d9e44aaa051ea75a0xda75ada3164491892022-12-01 16:59:203 hrs 4 mins ago0x46cb0813b518405c094d655b5636486f0eb400d1OUT 0x0dcc5b5eb6624c5a1857566cd6e854e95ffb0c0b0 CELO0.001284717896
0xf772774df468648aa68d5a9981a4982c1519832c1926c95250baf58c2ee78e100xda75ada3164491892022-12-01 16:59:203 hrs 4 mins ago0x46cb0813b518405c094d655b5636486f0eb400d1OUT 0x0dcc5b5eb6624c5a1857566cd6e854e95ffb0c0b0 CELO0.000203587616
0x1406aafab7b1f1a9771cd8f236a066f101f84b325d68041a53606993a38456bd0xda75ada3164491022022-12-01 16:52:053 hrs 12 mins ago0x46cb0813b518405c094d655b5636486f0eb400d1OUT 0x0dcc5b5eb6624c5a1857566cd6e854e95ffb0c0b0 CELO0.0000533065
0x4fd7576548acbe4364843bc31c80e7c5b36b8a008569d2c6f73440977104a5f30xda75ada3164491022022-12-01 16:52:053 hrs 12 mins ago0x46cb0813b518405c094d655b5636486f0eb400d1OUT 0x0dcc5b5eb6624c5a1857566cd6e854e95ffb0c0b0 CELO0.0006101065
0xe1b725337da55a109167b02834679a170d6881ff07cdbf6c56403191634a89de0xda75ada3164490752022-12-01 16:49:503 hrs 14 mins ago0x46cb0813b518405c094d655b5636486f0eb400d1OUT 0x0dcc5b5eb6624c5a1857566cd6e854e95ffb0c0b0 CELO0.000138714856
0xdb274f0a1433caead3bdaa0680bcd8ccbcc8dc6c348804cd70d01912ce1af60b0xda75ada3164490472022-12-01 16:47:303 hrs 16 mins ago0x46cb0813b518405c094d655b5636486f0eb400d1OUT 0x0dcc5b5eb6624c5a1857566cd6e854e95ffb0c0b0 CELO0.000393467795
0xa2bb063f89b68007b4e0ae28e9dc31b08cf6ce390d19d39e67bae317fe6391b90xda75ada3164490462022-12-01 16:47:253 hrs 16 mins ago0x46cb0813b518405c094d655b5636486f0eb400d1OUT 0x0dcc5b5eb6624c5a1857566cd6e854e95ffb0c0b0 CELO0.000207857621
0x1a30c21ec421a22b512e5627cc6d7bcf57aad22a538c6043a09ab875292c3a830xda75ada3164490462022-12-01 16:47:253 hrs 16 mins ago0x46cb0813b518405c094d655b5636486f0eb400d1OUT 0x0dcc5b5eb6624c5a1857566cd6e854e95ffb0c0b0 CELO0.001144224
0x0997b3c30cffee8954f95f0e7da36440f265a694036c9f792b437d72c85e21540xda75ada3164490412022-12-01 16:47:003 hrs 17 mins ago0x46cb0813b518405c094d655b5636486f0eb400d1OUT 0x0dcc5b5eb6624c5a1857566cd6e854e95ffb0c0b0 CELO0.000083911335
0xf86968e1df9f56682c86012faa5ae3683314e2a722eb296c18c4f31998f236120xda75ada3164490392022-12-01 16:46:503 hrs 17 mins ago0x46cb0813b518405c094d655b5636486f0eb400d1OUT 0x0dcc5b5eb6624c5a1857566cd6e854e95ffb0c0b0 CELO0.00001088544
0x424e1d04b4c4f0002c4ee7ec5b7b2a183bc8dea70533d8b8953ce0b4c31a4fee0xda75ada3164490392022-12-01 16:46:503 hrs 17 mins ago0x46cb0813b518405c094d655b5636486f0eb400d1OUT 0x0dcc5b5eb6624c5a1857566cd6e854e95ffb0c0b0 CELO0.000050321496
0x069449dfd9a0404c8cb0599f1df5d3fd176bc7ad1e869e2026d2d4e1430bfe960xda75ada3164490202022-12-01 16:45:153 hrs 18 mins ago0x46cb0813b518405c094d655b5636486f0eb400d1OUT 0x0dcc5b5eb6624c5a1857566cd6e854e95ffb0c0b0 CELO0.00061395264
0xac254969fcc8035d78415074fb6fba89590d1fcc09578764db08ae5697d4a7bc0xda75ada3164490142022-12-01 16:44:453 hrs 19 mins ago0x46cb0813b518405c094d655b5636486f0eb400d1OUT 0x0dcc5b5eb6624c5a1857566cd6e854e95ffb0c0b0 CELO0.000375443563
0x7a82aff27567eccefc019d515e651a9eef8cecc980bb7f9dabde973864a66a700xda75ada3164490062022-12-01 16:44:053 hrs 20 mins ago0x46cb0813b518405c094d655b5636486f0eb400d1OUT 0x0dcc5b5eb6624c5a1857566cd6e854e95ffb0c0b0 CELO0.000295791539
0x015d43ddacd50ab90fb52ce8a27b0f9a6ac8a7c345adba8d462e3dae7c4689f00xda75ada3164489952022-12-01 16:43:103 hrs 21 mins ago0x46cb0813b518405c094d655b5636486f0eb400d1OUT 0x0dcc5b5eb6624c5a1857566cd6e854e95ffb0c0b0 CELO0.0001111575
0x88dc9544402fae377e244881820682d9eeb63d94c6c0d4fb22e0b24c3d7825310xda75ada3164489942022-12-01 16:43:053 hrs 21 mins ago0x46cb0813b518405c094d655b5636486f0eb400d1OUT 0x0dcc5b5eb6624c5a1857566cd6e854e95ffb0c0b0 CELO0.000114514456
[ Download CSV Export 
Latest 5 internal transactions
Parent Txn Hash Block From To Value
0x0a8fcbeffa5f6e2611cfd66b0e3cfc317dc54c8b5f7f988e2e576b225f590af9157982262022-10-25 0:52:0637 days 19 hrs ago 0xaf106f8d4756490e7069027315f4886cc94a8f730x46cb0813b518405c094d655b5636486f0eb400d137.419331114067616499 CELO
0x1634212af5f8a948b37a99d21dd8f4c168c542ff75c2c3f53858a228faac7ceb156908982022-10-18 19:48:0444 days 16 mins ago 0xaf106f8d4756490e7069027315f4886cc94a8f730x46cb0813b518405c094d655b5636486f0eb400d114,978.331677874617032227 CELO
0x4ffe12b0204e31cd61839c554fbb32cec70c5e41a7e383efcb39ec42a8ef1f52155930962022-10-13 3:57:5249 days 16 hrs ago 0xaf106f8d4756490e7069027315f4886cc94a8f730x46cb0813b518405c094d655b5636486f0eb400d1328.677136461697561806 CELO
0x56ad3bd36487b691dfe2e9b0ed2ccf510a482c6eb169108806e1d4f9c674915b139097432022-07-06 17:20:33148 days 2 hrs ago 0xaf106f8d4756490e7069027315f4886cc94a8f730x46cb0813b518405c094d655b5636486f0eb400d110.137227746453848818 CELO
0x59782ba1d802f39386646d21f5580d5376951410833adf7610a82afb61032bd2126230682022-04-23 6:08:09222 days 13 hrs ago 0xaf106f8d4756490e7069027315f4886cc94a8f730x46cb0813b518405c094d655b5636486f0eb400d10.002812746656574644 CELO
[ Download CSV Export 
Loading

Contract Name:
0

Compiler Version
0

Optimization Enabled:
0

Other Settings:
-NA-
Block Transaction Gas Used Reward
Age Block Fee Address BC Fee Address Voting Power Jailed Incoming
Block Uncle Number Difficulty Gas Used Reward
Loading
Make sure to use the "Vote Down" button for any spammy posts, and the "Vote Up" for interesting conversations.